Vertical_Velocity
-3 0 -1 -1 -0 -3 -3 -3 -2 -1 -1 -2 -3 -2 -2 -3 -2 -2 -2 -3 -3 -2 -2 -3 -3 -1 -1
-1 -0 -1 -1 -0 -1 -1 -2 -3 -2 -1 -1 -2 -2 -3 -3 -2 -3 -2 -3 -3 -3 0 -3 -3 -1 -2
-1 -1 -0 -1 1 -1 -1 -1 -1 0 -1 0 -2 -1 -2 -3 -3 -2 -2 -1 -1 -3 -3 -1 -3 -3 -2
-2 2 -1 0 -1 -1 -1 -1 -1 -2 -2 -2 0 -2 -1 0 -2 -3 -1 -2 -1 -3 -2 -2 -2 -2 -1
2 -2 -1 -1 1 -0 -0 -0 -2 -0 -1 -2 -0 -1 -1 -1 -1 -1 -4 -1 -0 -1 -2 -2 -3 -2 1
1 -3 -0 -0 0 -0 1 0 2 -2 0 -2 1 -1 -2 -2 1 -2 1 -0 -2 -2 -3 -2 -3 -1 -1
-3 1 1 2 2 1 1 -3 -0 -3 -0 -1 -0 0 1 -0 -2 -1 -0 -3 -3 -3 -3 -3 -2 0 -1
3 -2 -2 -4 -0 -0 -0 3 -1 -1 -1 -1 -1 -0 -1 -1 -2 1 -0 0 -2 -2 -2 -3 -1 -1 -0
2 1 1 1 4 -5 -0 1 1 -1 0 -1 -3 -1 -1 0 -2 -2 -2 -1 -2 -2 -2 -3 -3 -3 1
-1 2 -2 -2 -1 2 -1 3 -2 -5 -4 -1 -1 -2 -1 -2 -1 -3 -3 -2 -0 0 -1 -2 -3 -2 -2
1 -0 -1 -2 0 2 -2 0 -1 -1 -1 -1 -1 -2 -2 -5 -3 -3 -2 -1 -2 -1 0 0 -1 -2 -3
1 -0 -2 -3 -0 1 -0 -2 -1 -4 -0 -0 -1 -2 -2 -0 -2 -1 -1 -3 -3 -2 -2 -1 -0 -1 1
-1 -1 -1 1 -1 1 1 -1 -1 -0 1 0 -2 -1 -2 -4 -1 -2 -5 -2 -2 -3 -2 -2 -3 -3 -9
-0 1 2 -0 -3 2 0 1 1 -0 -0 -1 -1 -2 -2 1 -3 -1 -2 -4 -2 -2 -2 -1 -1 -2 -1
-1 2 0 -1 2 1 -0 -1 1 -0 -0 -2 -3 -2 0 -3 -1 -1 -2 -1 -2 -3 -1 -1 1 -2 -1
-1 -1 -2 -1 2 1 1 1 -0 -0 -2 -2 -3 2 -0 -2 -1 -1 -0 -2 -2 -2 -2 -3 0 1 1
1 -1 -1 -0 2 0 2 1 -0 -1 0 -2 2 1 -2 -3 -2 -1 -2 -3 -3 -2 -2 -2 -4 -1 -5
Height
1580 1581 1582 1583 1583 1583 1582 1582 1581 1580 1578 1577 1576 1574 1571 1569 1566 1564 1561 1558 1555 1552 1548 1544 1540 1536 1532
1577 1578 1579 1580 1580 1580 1580 1580 1579 1578 1577 1575 1573 1572 1569 1567 1564 1562 1560 1557 1554 1550 1547 1544 1540 1535 1531
1574 1575 1575 1577 1577 1577 1577 1577 1577 1576 1574 1573 1571 1570 1567 1565 1563 1561 1558 1555 1552 1549 1546 1543 1539 1534 1530
1569 1571 1572 1573 1573 1574 1574 1574 1574 1573 1572 1571 1569 1568 1566 1563 1560 1559 1556 1554 1551 1548 1545 1542 1539 1534 1529
1565 1566 1567 1569 1570 1570 1571 1571 1571 1571 1569 1568 1567 1566 1564 1562 1560 1557 1554 1552 1549 1547 1544 1540 1537 1533 1528
1561 1563 1563 1565 1566 1567 1567 1568 1569 1567 1567 1566 1565 1564 1562 1560 1557 1555 1553 1551 1548 1545 1542 1539 1535 1532 1528
1557 1558 1559 1560 1562 1563 1563 1564 1564 1564 1564 1564 1563 1562 1560 1557 1555 1554 1552 1550 1546 1543 1541 1537 1534 1531 1527
1551 1553 1555 1557 1558 1560 1560 1559 1560 1561 1562 1561 1560 1559 1557 1555 1554 1553 1550 1548 1545 1542 1539 1536 1533 1530 1526
1546 1548 1550 1553 1554 1555 1557 1557 1557 1558 1559 1558 1557 1556 1554 1553 1552 1551 1549 1546 1544 1541 1538 1535 1532 1528 1525
1542 1544 1546 1549 1550 1551 1553 1554 1554 1557 1556 1556 1554 1554 1553 1552 1551 1549 1547 1545 1543 1540 1538 1534 1531 1526 1522
1537 1540 1541 1544 1546 1547 1549 1550 1551 1553 1552 1553 1552 1551 1551 1550 1549 1547 1545 1543 1541 1539 1536 1533 1530 1526 1521
1532 1534 1536 1539 1542 1544 1545 1547 1548 1549 1550 1550 1550 1550 1549 1548 1547 1546 1544 1542 1540 1538 1535 1532 1529 1526 1523
1526 1530 1533 1536 1538 1540 1541 1543 1544 1546 1547 1547 1547 1548 1547 1547 1546 1544 1542 1541 1539 1537 1534 1530 1527 1524 1521
1523 1527 1530 1531 1533 1536 1537 1539 1541 1543 1544 1544 1545 1545 1545 1544 1544 1543 1542 1541 1538 1536 1534 1531 1528 1525 1522
1519 1522 1524 1527 1530 1531 1533 1535 1537 1539 1540 1541 1543 1543 1543 1543 1543 1542 1541 1540 1538 1535 1533 1530 1529 1525 1521
1513 1516 1519 1522 1525 1527 1529 1532 1534 1536 1537 1538 1539 1540 1540 1541 1540 1540 1539 1538 1536 1534 1532 1529 1526 1524 1521
1508 1511 1515 1518 1521 1523 1525 1527 1530 1532 1533 1535 1537 1537 1538 1538 1539 1538 1538 1536 1535 1533 1531 1528 1525 1522 1519